Theta_e
307 306 306 306 305 305 305 307 309 309 309 309 308 309 309 307 307 307 312 319 315 314 315 329 337 337 345 348 352 348 351 354 350 351 353 349 351 352 349 347 347 346 346 345 342
308 308 308 307 306 306 306 307 309 310 309 308 311 313 309 308 308 308 311 314 316 314 313 327 338 341 343 348 352 349 354 352 345 348 351 351 352 351 350 348 347 346 345 344 345
306 308 308 309 309 307 306 306 308 308 309 308 310 309 309 309 308 319 321 321 318 313 315 333 333 338 341 347 350 349 356 349 347 347 352 352 352 351 351 352 348 346 346 345 345
306 306 307 308 308 309 307 307 307 308 309 308 311 311 309 310 317 319 319 320 319 313 320 329 332 335 336 342 347 353 351 351 350 348 347 348 350 352 351 351 349 346 345 344 344
305 306 306 307 307 309 309 308 307 308 308 309 312 310 309 310 309 312 316 319 318 314 325 326 329 330 330 335 342 349 349 348 349 349 348 347 349 353 352 351 348 346 345 344 343
305 305 306 306 307 308 309 309 308 308 308 309 309 312 311 312 311 316 320 318 317 319 325 327 328 329 329 335 337 343 345 347 346 346 346 347 346 351 350 348 347 346 344 343 343
304 305 306 306 307 307 308 308 308 308 308 308 312 313 313 313 314 314 316 318 316 323 325 329 326 327 324 327 331 335 340 337 340 342 346 344 348 349 348 347 346 345 344 343 343
304 305 305 306 307 307 307 308 308 308 308 311 312 314 316 316 315 313 314 319 317 321 323 322 323 326 322 323 323 327 332 344 343 341 341 344 351 350 347 347 346 345 344 343 342
304 305 305 305 307 307 307 307 307 308 310 313 311 313 311 311 311 312 316 316 318 327 317 319 320 320 320 325 325 328 327 336 344 339 345 346 350 351 347 347 346 345 345 344 342
303 304 305 305 307 307 307 307 308 308 310 312 310 313 310 309 311 313 315 317 321 320 317 317 320 320 320 323 322 326 327 335 343 343 342 347 348 352 346 347 346 345 345 344 343
303 304 305 306 308 309 308 308 309 309 308 308 309 308 309 311 312 312 318 321 321 316 316 317 318 321 319 320 322 327 329 329 340 342 344 346 345 353 349 346 346 345 345 344 343
303 304 307 309 309 309 309 309 310 309 309 308 309 308 308 309 310 310 316 321 323 322 317 317 317 318 318 317 320 323 327 332 332 335 342 345 345 349 351 349 346 345 344 344 343
302 303 307 310 308 309 309 310 310 309 307 308 308 308 308 309 310 309 312 313 322 322 320 319 319 317 317 317 319 321 323 327 331 333 336 343 345 347 352 350 349 345 344 343 342
302 302 306 310 307 310 310 310 310 309 309 310 309 308 309 309 310 309 312 312 315 324 321 322 320 318 318 318 318 319 320 324 326 328 339 339 349 346 349 354 351 349 346 343 342
304 302 305 310 310 310 310 310 309 307 309 309 309 307 308 309 309 310 313 315 316 317 321 324 322 321 320 319 318 319 319 318 323 328 329 332 343 345 346 355 354 350 349 348 346
308 303 305 311 310 310 310 310 308 310 309 309 309 307 309 309 309 309 314 314 316 319 320 319 321 323 322 320 319 319 321 320 320 322 330 333 335 341 344 350 352 351 350 349 348
308 303 309 310 310 311 310 308 310 310 309 308 309 307 308 309 309 311 315 315 317 318 320 320 320 320 322 323 321 320 321 324 325 322 328 332 334 335 337 342 346 350 350 350 349
306 308 309 310 310 311 311 310 310 310 308 307 308 307 308 308 308 310 312 313 313 317 320 321 319 320 321 323 324 322 323 323 326 323 321 327 333 334 333 332 339 344 347 349 350
306 310 309 309 309 310 311 312 310 309 309 309 308 308 307 308 308 308 310 313 314 312 314 321 321 318 319 319 322 324 324 323 323 326 326 323 329 331 333 335 334 336 345 348 350
305 309 309 309 309 309 311 309 310 309 309 308 309 308 309 308 308 308 308 313 314 311 312 314 314 317 318 319 321 323 324 325 325 324 326 325 326 330 335 335 336 336 342 346 348
304 310 307 310 310 309 311 309 309 308 309 309 308 308 308 308 308 308 308 311 310 311 312 314 312 313 316 322 323 323 324 325 326 326 326 325 327 329 332 337 337 337 337 340 345
304 309 307 310 309 305 308 306 306 308 309 309 308 308 308 307 308 308 308 309 310 311 312 313 313 313 314 318 318 319 323 325 328 329 329 328 326 329 332 334 335 335 337 338 342
305 305 307 309 310 308 306 306 307 308 309 309 308 308 307 307 308 308 309 311 311 311 312 314 313 313 310 314 318 320 319 321 323 326 331 329 327 328 330 329 332 333 334 339 343
305 308 306 306 304 307 305 307 308 307 309 308 308 308 308 308 308 308 309 310 310 310 311 312 312 312 313 312 313 317 317 317 319 326 329 331 330 329 328 330 331 329 329 331 337
305 306 304 308 308 306 306 306 307 308 308 308 309 308 309 309 309 308 308 307 309 310 311 311 310 309 309 309 310 312 313 316 317 322 326 328 330 331 332 332 331 331 330 330 330
306 307 305 305 305 306 307 307 308 308 308 308 308 308 309 310 310 309 308 308 309 310 311 311 309 310 309 309 311 312 313 314 316 318 320 322 325 325 330 335 335 337 339 340 340
305 306 306 306 306 308 309 308 309 309 307 307 308 308 307 308 308 308 308 307 307 308 310 310 310 309 308 313 314 316 315 316 318 320 320 325 326 328 333 337 333 332 332 335 338
Wind_Speed
23 22 22 22 20 20 18 16 15 16 18 21 20 18 13 11 12 14 14 10 14 12 23 25 21 17 15 12 5 4 2 4 3 3 1 9 6 8 10 18 6 11 10 21 33
26 25 23 24 23 21 19 17 15 16 18 24 21 17 13 12 11 14 6 10 12 18 29 29 23 19 9 9 5 5 3 3 2 1 3 11 9 11 8 16 6 8 13 35 36
26 26 25 25 24 21 20 18 17 18 19 20 17 14 9 11 7 4 4 6 23 25 23 24 22 17 9 9 8 7 4 2 2 1 10 9 9 6 15 9 12 23 28 36 37
26 25 25 25 25 21 20 19 17 19 20 17 13 14 13 8 1 3 3 3 26 32 26 25 21 14 9 9 15 6 11 12 4 5 7 4 7 7 12 2 13 24 35 41 39
26 26 25 25 25 22 19 19 18 19 20 13 14 17 12 3 5 4 4 2 28 31 29 25 25 17 13 10 9 15 6 6 10 5 4 3 5 4 10 5 15 25 36 38 36
29 28 28 27 25 22 18 18 18 18 17 14 16 14 3 1 1 12 5 8 31 31 26 23 19 15 11 5 13 5 19 13 4 5 6 7 2 7 4 13 22 30 36 38 36
30 29 29 29 27 21 17 18 19 16 12 17 16 7 7 2 4 10 11 9 30 28 26 21 7 17 5 7 11 12 4 6 11 9 6 7 7 10 13 18 26 30 34 37 34
30 29 29 27 25 21 21 20 17 11 8 10 14 11 6 8 5 9 9 5 21 25 18 17 11 14 3 4 2 6 9 5 3 13 6 9 3 6 19 24 26 29 33 35 33
31 30 29 25 22 22 22 21 14 7 9 9 12 7 6 12 10 3 4 3 14 28 13 11 8 5 7 3 5 5 10 15 5 9 7 13 2 11 18 22 25 28 33 34 33
31 30 28 22 18 20 22 17 9 4 10 6 14 3 13 13 12 6 3 7 8 19 12 6 10 7 7 11 12 11 14 10 15 10 12 11 8 11 18 21 23 26 30 33 34
31 30 27 18 10 15 20 10 7 3 10 3 3 4 9 8 20 16 6 9 15 14 11 10 11 21 20 13 13 9 7 16 11 9 10 14 11 12 18 19 21 25 29 32 35
29 29 25 16 6 11 17 11 11 8 7 5 8 7 9 14 4 17 6 4 6 9 10 6 19 17 11 13 14 17 6 12 14 3 10 8 15 13 19 24 30 33 32 34 32
28 28 23 15 3 10 13 17 17 9 3 3 2 8 11 6 5 12 9 2 7 8 16 14 3 15 14 14 16 18 19 8 7 6 10 7 15 13 15 17 19 23 27 27 33
28 27 22 12 2 10 11 16 17 3 2 1 2 5 10 2 4 11 8 1 4 13 14 13 17 9 16 21 18 19 17 17 10 5 12 13 12 13 15 19 20 27 30 32 35
26 24 17 10 4 12 13 15 10 3 3 4 3 5 7 6 7 9 9 2 1 1 5 9 12 18 14 16 19 14 11 16 19 13 10 11 9 17 11 17 21 27 32 34 36
25 23 13 7 6 11 12 13 5 3 4 2 3 4 4 7 5 9 8 7 1 2 3 10 9 13 18 13 17 10 4 12 15 14 16 20 13 15 13 19 20 25 31 34 35
24 21 1 7 11 9 11 1 2 3 1 2 4 3 3 5 4 6 4 9 5 3 3 3 11 9 12 14 17 20 14 7 8 11 19 18 16 17 14 15 17 22 32 36 36
24 11 4 10 10 8 8 1 5 3 3 2 1 0 1 2 1 4 2 2 7 3 2 3 10 11 8 20 13 20 20 8 13 13 16 17 13 14 26 23 13 20 26 26 31
21 5 9 16 14 6 0 2 2 1 3 3 2 3 4 2 2 1 3 1 2 5 3 3 6 2 4 4 17 15 22 21 9 4 10 14 21 13 14 20 25 22 18 24 30
19 4 15 18 8 3 2 1 1 3 5 2 3 3 6 3 3 0 1 2 3 2 2 1 7 2 4 4 13 16 16 17 13 17 12 8 21 15 21 16 17 19 22 23 27
11 3 17 18 4 7 2 2 2 4 6 3 3 4 3 4 3 3 1 3 4 2 1 1 2 4 6 8 20 13 12 14 16 16 14 12 10 16 19 20 17 18 28 27 27
7 2 22 16 7 4 3 6 7 3 4 3 4 5 5 4 4 5 6 5 6 4 2 1 3 6 9 7 5 6 10 23 12 20 19 13 14 4 16 20 25 26 24 28 29
6 6 17 13 4 4 5 3 3 6 6 4 3 5 4 2 4 7 4 3 6 4 3 4 3 5 7 8 4 5 1 7 12 8 20 18 15 12 9 7 10 16 18 20 25
5 2 8 14 7 4 5 4 6 8 0 5 4 1 1 7 5 3 4 3 3 3 5 3 3 8 10 11 11 8 7 4 10 15 18 15 19 23 20 11 11 8 10 11 18
6 3 4 4 7 7 4 3 6 6 3 5 3 3 3 6 6 7 5 3 7 5 4 3 6 8 16 18 17 18 20 17 11 14 13 19 16 18 19 22 23 19 5 7 8
4 3 3 2 2 4 2 1 3 4 3 6 7 8 5 6 8 5 7 8 7 9 7 5 5 7 17 16 15 19 21 19 18 17 12 14 12 8 12 9 4 6 6 8 11
6 5 3 3 4 3 2 3 5 13 8 13 9 7 7 13 13 18 14 14 13 5 9 6 3 5 7 9 14 11 22 19 13 6 17 16 6 11 10 2 6 8 10 11 13
Wind_Direction
12 7 4 2 359 357 356 353 353 352 350 345 334 324 317 301 283 269 263 257 215 196 179 172 169 169 165 179 192 183 235 238 254 203 146 152 152 149 120 137 146 178 164 165 160
16 10 3 358 352 351 348 347 348 346 345 341 338 321 307 309 294 275 249 215 192 191 182 178 166 157 168 186 199 206 246 233 258 145 197 167 170 141 131 145 124 135 134 155 159
10 6 2 0 352 345 341 340 341 341 343 344 352 354 321 316 315 136 122 216 189 188 189 177 163 159 168 177 191 199 241 234 306 185 143 136 142 138 145 186 186 165 153 158 163
6 2 355 354 353 347 334 336 336 335 340 344 335 337 336 312 213 188 258 262 188 188 183 172 171 172 184 190 203 233 245 255 324 160 174 178 161 173 182 136 186 172 162 162 169
0 358 354 352 352 350 334 334 334 336 338 342 334 323 320 294 260 316 298 303 178 181 180 177 178 181 195 202 199 226 262 261 244 244 285 184 205 162 205 156 151 160 162 168 171
355 356 353 351 351 349 340 335 334 336 336 340 341 339 337 255 359 7 355 171 182 177 172 175 188 184 201 196 207 222 240 261 282 242 281 264 255 190 142 151 150 161 167 171 176
351 355 353 351 351 350 344 338 332 336 334 343 351 6 78 20 76 22 27 181 185 178 174 172 184 188 163 208 236 233 321 281 247 238 243 233 222 215 158 157 156 168 171 173 179
350 352 352 352 353 348 345 341 340 348 353 10 25 73 81 60 73 0 18 148 198 174 177 183 185 196 237 284 216 211 218 253 181 196 223 190 237 150 160 160 166 173 175 176 182
351 352 353 353 351 347 349 345 350 41 3 38 32 83 33 358 335 4 19 160 185 186 150 193 187 214 221 239 210 193 216 217 249 192 192 201 261 152 168 170 170 177 179 181 186
349 349 352 353 350 349 350 344 353 36 31 28 25 62 21 351 30 78 0 155 145 172 180 144 188 208 214 211 210 208 215 219 211 189 197 202 227 157 176 180 181 182 183 186 190
346 344 351 357 4 8 0 4 3 355 28 25 37 64 340 39 55 44 93 129 118 157 183 184 194 212 210 219 232 259 235 233 205 204 212 224 232 191 184 189 185 189 191 192 196
345 343 353 358 35 26 22 59 32 326 314 29 60 36 19 5 12 24 132 164 158 173 167 177 225 220 225 218 228 244 277 235 251 218 218 215 233 203 189 199 193 192 196 197 195
349 347 354 355 114 18 20 13 355 332 254 303 73 22 11 8 49 14 30 233 198 175 191 209 225 196 200 203 217 231 236 233 255 258 242 230 245 214 208 212 203 206 208 206 202
348 347 350 1 124 6 1 351 343 292 314 128 21 19 353 102 95 3 31 26 218 215 190 224 225 190 207 216 207 228 227 237 261 293 232 211 243 206 209 204 207 206 207 209 207
342 343 348 4 24 2 338 338 336 129 253 49 46 40 21 59 332 14 3 75 169 185 237 203 201 207 218 225 208 232 231 232 242 255 279 229 241 233 202 209 213 211 211 211 210
340 340 343 336 337 348 343 337 128 185 215 82 38 19 28 29 15 330 3 27 45 276 205 260 250 208 214 210 201 222 221 227 234 236 246 235 233 231 205 211 216 213 215 214 211
343 338 3 19 342 340 346 74 207 220 42 76 31 15 58 7 22 7 38 46 10 252 227 313 238 229 191 206 203 208 195 198 212 212 235 228 232 233 213 213 212 202 212 215 211
349 2 89 348 327 323 341 169 237 98 78 32 38 210 188 351 40 358 86 78 56 0 310 242 224 210 198 216 203 202 205 200 207 217 230 217 234 221 228 240 230 229 219 214 210
350 155 12 357 334 286 138 232 356 72 347 309 278 227 173 205 304 6 53 40 56 19 335 287 245 298 247 311 220 191 211 215 265 248 251 217 236 266 230 238 234 234 222 208 208
346 189 6 352 356 129 148 108 94 34 348 292 253 228 212 192 243 289 207 132 144 10 319 85 290 251 304 296 242 230 204 205 220 236 234 207 218 229 205 222 224 226 218 215 211
360 96 360 353 58 62 77 36 333 347 352 277 263 251 228 219 224 209 191 150 186 139 333 202 239 273 290 199 217 201 206 212 214 227 234 245 226 225 223 209 217 222 222 221 214
22 60 2 11 46 34 39 340 331 335 356 317 291 264 239 187 227 237 245 238 168 154 196 208 269 264 267 292 315 328 253 212 220 217 230 258 243 226 215 211 216 221 222 222 218
18 3 22 31 65 39 339 339 304 336 350 334 317 14 14 233 258 241 231 169 175 156 172 166 237 282 253 225 160 225 204 292 249 240 229 221 225 266 275 234 213 226 228 227 226
19 30 31 55 73 55 24 17 348 335 56 343 308 14 211 239 227 270 224 198 205 203 177 190 229 258 273 332 326 295 314 304 274 223 227 231 238 234 255 249 250 248 257 240 230
36 63 30 25 37 20 0 355 350 350 338 327 260 249 264 248 237 228 217 278 222 219 154 217 257 266 281 290 285 273 268 268 258 250 232 225 243 249 235 249 262 285 273 265 252
62 38 37 73 347 312 15 3 298 298 243 263 236 262 222 213 234 246 232 214 220 198 182 180 258 283 290 291 269 259 252 247 249 243 249 260 260 266 284 291 290 336 323 291 286
62 48 73 12 351 326 328 305 286 301 232 246 271 289 271 275 288 258 257 265 258 256 208 191 228 293 276 324 313 266 241 232 230 222 215 215 201 310 285 326 18 351 329 306 291